Location: ?????????
(54.7630°N, 39.4991°E)
Time: 10:53:34
(UTC+00:00)

Cosmos 2056 Rocket - Pass Details

Date: 14 April 2026
Orbit: 738 x 796 km, 74.0° (Epoch: 10 May)

Event Time Altitude Azimuth Distance (km) Brightness Sun altitude
Exits shadow 21:36:57 46° 110° (ESE) 1,055 4.0 -25.5°
Maximum altitude 21:37:02 46° 107° (ESE) 1,055 4.0 -25.5°
Drops below altitude 10° 21:42:12 10° 36° (NE) 2,378 6.8 -25.4°
Sets 21:44:41 0° 30° (NNE) 3,313 7.8 -25.4°
